Howell, MI

11:43 AM EDT on August 28, 2016 (GMT -0400)
Livingston County

Weather History for KOZW - June, 2014

Change the Weather History Date:

Wednesday, June 4, 2014

  Actual Average Record
Temperature  
Mean Temperature 58 °F -  
Max Temperature 63 °F 72 °F 89 °F (2011)
Min Temperature 54 °F 51 °F 37 °F (1998)
Degree Days  
Heating Degree Days 6    
Growing Degree Days 8 (Base 50)    
Moisture  
Dew Point 55 °F    
Average Humidity 86    
Maximum Humidity 98    
Minimum Humidity 72    
Precipitation  
Precipitation 0.00 in - - ()
Sea Level Pressure  
Sea Level Pressure 29.89 in    
Wind  
Wind Speed 2 mph (South)    
Max Wind Speed 9 mph    
Max Gust Speed -    
Visibility 9 miles    
Events Fog , Rain    
Averages and records for this station are not official NWS values.
T = Trace of Precipitation, MM = Missing Value Source: NWS Daily Summary

Daily Weather History Graph

Daily Weather History Graph

Search for Another Location

Airport or City:

Trip Planner

Search our weather history database for the weather conditions in past years. The results will help you decide how hot, cold, wet, or windy it might be!

Date:

Astronomy

Jun. 04, 2014 Rise Set
Actual Time 5:59 AM EDT 9:09 PM EDT
Civil Twilight 5:25 AM EDT 9:43 PM EDT
Nautical Twilight 4:41 AM EDT 10:28 PM EDT
Astronomical Twilight 3:48 AM EDT 11:21 PM EDT
Moon 12:24 PM EDT (6/4) 1:02 AM EDT (6/4)
Length of Visible Light 16h 18m
Length of Day
15h 09m
Waxing Crescent, 39% of the Moon is Illuminated
Jun 4
Waxing Crescent
Jun 5
First Quarter
Jun 13
Full
Jun 19
Last Quarter
Jun 27
New

Hourly Weather History & Observations

Time (EDT) Temp. Dew Point Humidity Pressure Visibility Wind Dir Wind Speed Gust Speed Precip Events Conditions
12:15 AM 58.1 °F 49.6 °F 73% 29.93 in 10.0 mi SW 3.5 mph - N/A   Clear
12:34 AM 58.3 °F 49.5 °F 72% 29.93 in 10.0 mi WSW 3.5 mph - N/A   Clear
1:15 AM 56.7 °F 50.4 °F 79% 29.93 in 10.0 mi WSW 4.6 mph - N/A   Clear
1:34 AM 56.5 °F 50.4 °F 80% 29.93 in 10.0 mi SW 3.5 mph - N/A   Clear
1:55 AM 57.0 °F 50.5 °F 79% 29.94 in 10.0 mi WSW 3.5 mph - N/A   Clear
2:15 AM 57.0 °F 50.4 °F 78% 29.93 in 10.0 mi SW 3.5 mph - N/A   Clear
2:35 AM 56.8 °F 50.5 °F 79% 29.94 in 10.0 mi SW 3.5 mph - N/A   Clear
2:55 AM 55.8 °F 50.9 °F 84% 29.93 in 10.0 mi Calm Calm - N/A   Clear
3:14 AM 57.0 °F 50.9 °F 80% 29.93 in 10.0 mi Calm Calm - N/A   Clear
3:35 AM 57.0 °F 50.9 °F 80% 29.92 in 10.0 mi Calm Calm - N/A   Clear
3:55 AM 54.9 °F 50.7 °F 86% 29.91 in 10.0 mi Calm Calm - N/A   Clear
4:15 AM 55.0 °F 50.9 °F 86% 29.90 in 10.0 mi Calm Calm - N/A   Clear
4:35 AM 54.7 °F 51.6 °F 89% 29.90 in 10.0 mi Calm Calm - N/A   Clear
4:55 AM 55.4 °F 51.8 °F 88% 29.91 in 10.0 mi Calm Calm - N/A   Clear
5:14 AM 54.5 °F 52.0 °F 91% 29.91 in 10.0 mi Calm Calm - N/A   Clear
5:35 AM 55.2 °F 52.5 °F 91% 29.91 in 10.0 mi Calm Calm - N/A   Clear
5:55 AM 55.8 °F 53.4 °F 92% 29.92 in 10.0 mi Calm Calm - N/A   Clear
6:14 AM 55.9 °F 53.6 °F 92% 29.92 in 10.0 mi Calm Calm - N/A   Clear
6:35 AM 55.9 °F 52.7 °F 89% 29.93 in 10.0 mi Calm Calm - N/A   Clear
6:55 AM 56.3 °F 52.2 °F 86% 29.93 in 10.0 mi Calm Calm - N/A   Scattered Clouds
7:14 AM 56.5 °F 52.7 °F 87% 29.93 in 10.0 mi Calm Calm - N/A   Mostly Cloudy
7:35 AM 56.7 °F 52.9 °F 87% 29.93 in 10.0 mi Calm Calm - N/A   Scattered Clouds
7:55 AM 57.2 °F 53.2 °F 87% 29.92 in 10.0 mi Calm Calm - N/A   Clear
8:14 AM 57.7 °F 53.8 °F 87% 29.92 in 10.0 mi Calm Calm - N/A   Clear
8:35 AM 59.0 °F 54.7 °F 86% 29.91 in 10.0 mi Calm Calm - N/A   Clear
8:55 AM 59.5 °F 54.0 °F 82% 29.91 in 10.0 mi East 3.5 mph - N/A   Clear
9:14 AM 60.8 °F 54.3 °F 79% 29.91 in 10.0 mi SE 4.6 mph - N/A   Scattered Clouds
9:35 AM 61.9 °F 53.8 °F 75% 29.91 in 10.0 mi ESE 9.2 mph - N/A   Clear
9:55 AM 61.9 °F 54.0 °F 75% 29.91 in 10.0 mi East 4.6 mph - N/A   Mostly Cloudy
10:14 AM 62.6 °F 54.5 °F 75% 29.91 in 10.0 mi ESE 4.6 mph - N/A   Overcast
10:35 AM 62.6 °F 54.3 °F 74% 29.92 in 10.0 mi East 3.5 mph - N/A   Overcast
10:55 AM 62.6 °F 55.2 °F 77% 29.92 in 10.0 mi NNE 3.5 mph - N/A   Light Drizzle
11:14 AM 62.1 °F 56.5 °F 82% 29.92 in 10.0 mi Calm Calm - N/A Rain Light Rain
11:35 AM 61.7 °F 56.3 °F 82% 29.91 in 5.0 mi Calm Calm - N/A Rain Rain
11:54 AM 61.5 °F 57.0 °F 85% 29.91 in 5.0 mi Calm Calm - N/A Rain Rain
12:15 PM 61.0 °F 57.4 °F 88% 29.90 in 5.0 mi South 4.6 mph - N/A Rain Rain
12:35 PM 60.8 °F 57.4 °F 88% 29.90 in 7.0 mi Calm Calm - N/A Rain Light Rain
12:54 PM 61.0 °F 57.6 °F 88% 29.91 in 7.0 mi Calm Calm - N/A Rain Light Rain
1:15 PM 61.0 °F 57.9 °F 90% 29.90 in 7.0 mi Calm Calm - N/A Rain Rain
1:35 PM 61.0 °F 57.2 °F 87% 29.89 in 10.0 mi SSE 3.5 mph - N/A Rain Light Rain
1:54 PM 60.8 °F 57.2 °F 88% 29.89 in 7.0 mi SSE 4.6 mph - N/A Rain Rain
2:15 PM 60.8 °F 57.6 °F 89% 29.89 in 7.0 mi SE 4.6 mph - N/A Rain Light Rain
2:35 PM 60.8 °F 57.7 °F 90% 29.88 in 7.0 mi SE 5.8 mph - N/A Rain Light Rain
2:54 PM 60.8 °F 58.6 °F 93% 29.87 in 7.0 mi SE 6.9 mph - N/A Rain Rain
3:15 PM 60.8 °F 58.6 °F 93% 29.86 in 10.0 mi SE 8.1 mph - N/A Rain Light Rain
3:35 PM 60.6 °F 58.5 °F 93% 29.86 in 10.0 mi SSE 5.8 mph - N/A Rain Light Rain
3:54 PM 60.8 °F 58.3 °F 91% 29.85 in 10.0 mi Calm Calm - N/A Rain Light Rain
4:15 PM 61.3 °F 57.6 °F 87% 29.85 in 10.0 mi Calm Calm - N/A Rain Rain
4:35 PM 61.9 °F 57.7 °F 86% 29.84 in 10.0 mi Calm Calm - N/A Rain Light Rain
4:54 PM 61.7 °F 57.7 °F 87% 29.84 in 10.0 mi East 4.6 mph - N/A   Light Drizzle
5:15 PM 61.3 °F 57.6 °F 87% 29.84 in 10.0 mi Calm Calm - N/A   Overcast
5:35 PM 62.1 °F 59.0 °F 90% 29.85 in 10.0 mi Calm Calm - N/A   Mostly Cloudy
5:54 PM 62.4 °F 59.2 °F 89% 29.86 in 10.0 mi NW 6.9 mph - N/A   Scattered Clouds
6:15 PM 62.1 °F 59.2 °F 90% 29.85 in 10.0 mi Calm Calm - N/A   Mostly Cloudy
6:35 PM 61.9 °F 57.9 °F 87% 29.85 in 10.0 mi NNW 4.6 mph - N/A   Scattered Clouds
6:54 PM 63.3 °F 58.6 °F 85% 29.85 in 10.0 mi Calm Calm - N/A   Clear
7:15 PM 62.6 °F 57.2 °F 82% 29.85 in 10.0 mi Calm Calm - N/A   Clear
7:34 PM 63.1 °F 58.3 °F 84% 29.85 in 10.0 mi Calm Calm - N/A   Clear
7:55 PM 63.5 °F 58.3 °F 83% 29.85 in 10.0 mi WNW 3.5 mph - N/A   Clear
8:15 PM 62.6 °F 58.1 °F 85% 29.85 in 10.0 mi West 3.5 mph - N/A   Clear
8:34 PM 62.1 °F 57.9 °F 86% 29.85 in 10.0 mi West 3.5 mph - N/A   Clear
8:55 PM 61.3 °F 57.7 °F 88% 29.86 in 10.0 mi WNW 3.5 mph - N/A   Clear
9:15 PM 59.5 °F 57.2 °F 92% 29.86 in 10.0 mi Calm Calm - N/A   Clear
9:34 PM 58.6 °F 56.5 °F 93% 29.86 in 10.0 mi Calm Calm - N/A   Clear
9:55 PM 58.3 °F 56.7 °F 94% 29.86 in 10.0 mi Calm Calm - N/A   Clear
10:15 PM 55.4 °F 54.1 °F 96% 29.86 in 4.0 mi Calm Calm - N/A   Clear
10:34 PM 56.1 °F 54.7 °F 95% 29.86 in 5.0 mi West 3.5 mph - N/A   Clear
11:14 PM 55.2 °F 54.3 °F 97% 29.86 in 3.0 mi Calm Calm - N/A   Clear
11:35 PM 55.2 °F 54.5 °F 97% 29.86 in 0.5 mi Calm Calm - N/A Fog Fog
11:55 PM 54.7 °F 54.1 °F 98% 29.85 in 0.8 mi Calm Calm - N/A   Mist